Regional Weather Roundup
Issued by NWS

Home | Current Version | Previous Version | Graphics & Text | Print | Product List | Glossary Off
Versions: 1 2 3 4 5 6 7 8 9 10 11 12 13 14 15 16 17 18 19 20 21 22 23 24 25 26 27 28 29 30 31 32 33 34 35 36 37 38 39 40 41 42 43 44 45 46 47 48 49 50

000
ASUS43 KMKX 231521
RWRWI

WISCONSIN REGIONAL WEATHER ROUNDUP
NATIONAL WEATHER SERVICE MILWAUKEE/SULLIVAN WI
1000 AM CDT SUN JUL 23 2017

NOTE: "FAIR" INDICATES FEW OR NO CLOUDS BELOW 12,000 FEET WITH NO
SIGNIFICANT WEATHER AND/OR OBSTRUCTIONS TO VISIBILITY.

WIZ001-002-006>008-014>016-023>028-231600-
NORTHWEST WISCONSIN

CITY           SKY/WX    TMP DP  RH WIND       PRES   REMARKS
SUPERIOR ARPT  NOT AVBL
ASHLAND        CLOUDY    59  57  93 N7        29.90S
HAYWARD        CLOUDY    63  57  81 NE8       29.90R
SIREN          CLOUDY    62  56  83 NE10      29.92R
CUMBERLAND     CLOUDY    61  55  82 N12       29.89S
RICE LAKE      PTSUNNY   66  58  77 NW7       29.90S
CHETEK         MOSUNNY   67  60  78 NW6       29.88R
LADYSMITH      CLOUDY    65  59  80 N8        29.89S
EAU CLAIRE     SUNNY     73  59  61 N9        29.85R
MENOMONIE      SUNNY     72  59  64 NW10G24   29.87R
NEW RICHMOND   MOSUNNY   67  58  72 N9        29.90R
OSCEOLA        CLOUDY    69  59  71 N8        29.92S
$$

WIZ003>005-009-010-017-018-231600-
NORTH CENTRAL WISCONSIN

CITY           SKY/WX    TMP DP  RH WIND       PRES   REMARKS
MANITOWISH WTR CLOUDY    58  58 100 NW7       29.87S FOG
ARBOR VITAE    CLOUDY    62  60  93 N7        29.86R
WOODRUFF       CLOUDY    62  60  93 N7        29.86R
RHINELANDER    CLOUDY    67  61  81 N8        29.86R
EAGLE RIVER    CLOUDY    61  61  99 N7        29.85S
LAND O LAKES   CLOUDY    61  61 100 N5        29.88S
PHILLIPS       CLOUDY    60  60  97 CALM      29.87S
TOMAHAWK         N/A     67  61  82 NW7       29.85S
MEDFORD        MOSUNNY   71  60  69 NW6       29.84S
MERRILL        SUNNY     71  62  73 N5        29.84R
$$

WIZ029-030-035-036-043>047-231600-
CENTRAL WISCONSIN

CITY           SKY/WX    TMP DP  RH WIND       PRES   REMARKS
WAUSAU         SUNNY     74  61  63 NW7       29.81S
MOSINEE        MOSUNNY   73  63  68 NW5       29.84S
MARSHFIELD     MOSUNNY   74  61  63 W6        29.83S
STEVENS POINT  LGT RAIN  68  64  87 CALM      29.83S
WAUPACA        CLOUDY    75  65  70 NW6       29.80F
WAUTOMA        CLOUDY    71  66  84 SW8       29.82S
WISC RAPIDS    CLOUDY    75  64  68 VRB6      29.84S
CAMP DOUGLAS   PTSUNNY   75  66  73 NW6       29.83F
$$

WIZ011>013-019>022-031-037>040-048>050-231600-
NORTHEAST WISCONSIN

CITY           SKY/WX    TMP DP  RH WIND       PRES   REMARKS
ANTIGO         SUNNY     70  63  77 N10       29.83S
SHAWANO        MOSUNNY   77  67  71 N8        29.79R
OCONTO         CLOUDY    71  66  85 NW5       29.78S
STURGEON BAY     N/A     68  66  93 N8        29.79R
GREEN BAY      CLOUDY    73  69  87 NW7       29.78S
MANITOWOC      CLOUDY    78  69  73 W13       29.77S HX  80
APPLETON       PTSUNNY   72  66  83 W10       29.79S
CLINTONVILLE   CLOUDY    73  63  68 NW9       29.80S
OSHKOSH        CLOUDY    74  66  76 W7        29.79S
$$

WIZ032>034-041-042-053>061-231600-
SOUTHWEST WISCONSIN

CITY           SKY/WX    TMP DP  RH WIND       PRES   REMARKS
LA CROSSE      PTSUNNY   77  68  73 NW6       29.84R
SPARTA         MOSUNNY   71  64  80 W3        29.85R
VIROQUA        PTSUNNY   73  66  79 NW3       29.86S
BOSCOBEL       PTSUNNY   78  68  71 CALM      29.83F HX  80
PRAIRIE DU CHI SUNNY     77  67  72 CALM      29.82F
PLATTEVILLE    SUNNY     75  75 100 W8        29.86S
$$

WIZ056-057-062-063-064-067-068-231600-
SOUTH CENTRAL WISCONSIN

CITY           SKY/WX    TMP DP  RH WIND       PRES   REMARKS
REEDSBURG      MOSUNNY   72  68  89 N3        29.83F
BARABOO/DELLS  LGT RAIN  71  66  84 N5        29.84S
LONE ROCK      PTSUNNY   77  67  71 W6        29.82F
MINERAL POINT  MOSUNNY   79  73  83 CALM      29.85S HX  82
MADISON        PTSUNNY   79  66  64 NW6       29.81F HX  81
MIDDLETON      MOSUNNY   80  65  61 W3        29.83S HX  82
WATERTOWN      SUNNY     77  71  83 W5        29.81S
MONROE         SUNNY     79  64  61 W3        29.83F HX  81
JANESVILLE     SUNNY     81  70  69 VRB3      29.82S HX  84
$$

WIZ051-052-058>065-066-070>072-231600-
SOUTHEAST WISCONSIN

CITY           SKY/WX    TMP DP  RH WIND       PRES   REMARKS
MILWAUKEE      MOSUNNY   78  71  79 SW9       29.79S HX  80
WAUKESHA       MOSUNNY   77  70  78 SW7       29.82R
MILWAUKEE/TIMM MOSUNNY   79  66  65 W6        29.80S HX  81
RACINE         SUNNY     79  73  82 SW7       29.81S HX  82
KENOSHA        SUNNY     80  71  74 W5        29.81S HX  84
FOND DU LAC    CLOUDY    78  66  66 NW8       29.80S HX  80
SHEBOYGAN      PTSUNNY   76  72  87 NW9       29.78S
WEST BEND      MOSUNNY   79  66  65 W9        29.80R HX  81
JUNEAU         SUNNY     76  68  77 W3        29.82S
$$

LSZ147-162-231600-
LAKE SUPERIOR

STATION/POSITION TIME  TEMP    WIND        PRES    WAVE
                       AIR SEA DIR/SP/G            HT/PER
                 (UTC) (F)     (DEG/KT/KT) (MB)    (FT/S)
W MID LAKE BUOY  1450   51 47   10/ 10/ 12 1012.4R   2/ 4
DEVILS ISLAND    1500   56      10/  9/ 10 1013.0R
SAXON HARBOR     1440   58     360/  5/  7 1011.9S
$$

LMZ867-665-643>646-231600-
LAKE MICHIGAN

STATION/POSITION TIME  TEMP    WIND        PRES    WAVE
                       AIR SEA DIR/SP/G            HT/PER
                 (UTC) (F)     (DEG/KT/KT) (MB)    (FT/S)
CHAMBERS ISLAND  1440   70     330/  9/ 10 1007.8S
S GREEN BAY BUOY 1500   69 73  340/  6/  8 1008.4
N MID LAKE BUOY  1450   67 68  240/  8/ 10 1007.6F   1
NORTHPORT PIER   1440   68     330/ 14/ 15 1008.1S
KEWAUNEE LAKESHO 1454   73     310/  6/ 11 1007.3R
SHEBOYGAN LAKESH 1500   76     280/  8/  9 1007.5S
PORT WASHINGTON  1440   82     280/  4/  7 1009.1S
ATWATER BUOY     1409   71 69  190/  6/  8 1008.8S
MILWAUKEE LAKESH 1500   77     270/  6/  7   N/A
S MID LAKE BUOY  1450   71 70  180/ 10/ 10 1008.4S   0
KENOSHA   LAKESH 1500   74     160/  6/  7 1008.8
$$

TC  - TEMPERATURE IN CELSIUS
VSB - VISIBILITY IN STATUTE MILES
WCI - WIND CHILL INDEX
HX  - HEAT INDEX




USA.gov is the U.S. government's official web portal to all federal, state and local government web resources and services.